SCP
0 0 0 0 0 0 0 0 0 0 0 0 0 0 0 0 0 0 0 0 0 0 0 0 0 0 0 0 0 0 0 0 0 0 0 0 0 0 0 0 0 0 0
0 0 0 0 0 0 0 0 0 0 0 0 0 0 0 0 0 0 0 0 0 0 0 0 0 0 0 0 0 0 0 0 0 0 0 0 0 0 0 0 0 0 0
0 0 0 0 0 0 0 0 0 0 0 0 0 0 0 0 0 0 0 0 0 0 0 0 0 0 0 0 0 0 0 0 0 0 0 0 0 0 0 0 0 0 0
0 0 0 0 0 0 0 0 0 0 0 0 0 0 0 0 0 0 0 0 0 0 0 0 0 0 0 0 0 0 0 0 0 0 0 0 0 0 0 0 0 0 0
0 0 0 0 0 0 0 0 0 0 0 0 0 0 0 0 0 0 0 0 0 0 0 0 0 0 0 0 0 0 0 0 0 0 0 0 0 0 0 0 0 0 0
0 0 0 0 0 0 0 0 0 0 0 0 0 0 0 0 0 0 0 0 0 0 0 0 0 0 0 0 0 0 0 0 0 0 0 0 0 0 0 0 0 0 0
0 0 0 0 0 0 0 0 0 0 0 0 0 0 0 0 0 0 0 0 0 0 0 0 0 0 0 0 0 0 0 0 0 0 0 0 0 0 0 0 0 0 0
0 0 0 0 0 0 0 0 0 0 0 0 0 0 0 0 0 0 0 0 0 0 0 0 0 0 0 0 0 0 0 0 0 0 0 0 0 0 0 0 0 0 0
0 0 0 0 0 0 0 0 0 0 0 0 0 0 0 0 0 0 0 0 0 0 0 0 0 0 0 0 0 0 0 0 0 0 0 0 0 0 0 0 0 0 0
0 0 0 0 0 0 0 0 0 0 0 0 0 0 0 0 0 0 0 0 0 0 0 0 0 0 0 0 0 0 0 0 0 0 0 0 0 0 0 0 0 0 0
0 0 0 0 0 0 0 0 0 0 0 0 0 0 0 0 0 0 0 0 0 0 0 0 0 0 0 0 0 0 0 0 0 0 0 0 0 0 0 0 0 0 0
0 0 0 0 0 0 0 0 0 0 0 0 0 0 0 0 0 0 0 0 0 0 0 0 0 0 0 0 0 0 0 0 0 0 0 0 0 0 0 0 0 0 0
0 0 0 0 0 0 0 0 0 0 0 0 0 0 0 0 0 0 0 0 0 0 0 0 0 0 0 0 0 0 0 0 0 0 0 0 0 0 0 0 0 0 0
0 0 0 0 0 0 0 0 0 0 0 0 0 0 0 0 0 0 0 0 0 0 0 0 0 0 0 0 0 0 0 0 0 0 0 0 0 0 0 0 0 0 0
0 0 0 0 0 0 0 0 0 0 0 0 0 0 0 0 0 0 0 0 0 0 0 0 0 0 0 0 0 0 0 0 0 0 0 0 0 0 0 0 0 0 0
0 0 0 0 0 0 0 0 0 0 0 0 0 0 0 0 0 0 0 0 0 0 0 0 0 0 0 0 0 0 0 0 0 0 0 0 0 0 0 0 0 0 0
0 0 0 0 0 0 0 0 0 0 0 0 0 0 0 0 0 0 0 0 0 0 0 0 0 0 0 0 0 0 0 0 0 0 0 0 0 0 0 0 0 0 0
0 0 0 0 0 0 0 0 0 0 0 0 0 0 0 0 0 0 0 0 0 0 0 0 0 0 0 0 0 0 0 0 0 0 0 0 0 0 0 0 0 0 0
0 0 0 0 0 0 0 0 0 0 0 0 0 0 0 0 0 0 0 0 0 0 0 0 0 0 0 0 0 0 0 0 0 0 0 0 0 0 0 0 0 0 0
0 0 0 0 0 0 0 0 0 0 0 0 0 0 0 0 0 0 0 0 0 0 0 0 0 0 0 0 0 0 0 0 0 0 0 0 0 0 0 0 0 0 0
0 0 0 0 0 0 0 0 0 0 0 0 0 0 0 0 0 0 0 0 0 0 0 0 0 0 0 0 0 0 0 0 0 0 0 0 0 0 0 0 0 0 0
0 0 0 0 0 0 0 0 0 0 0 0 0 0 0 0 0 0 0 0 0 0 0 0 0 0 0 0 0 0 0 0 0 0 0 0 0 0 0 0 0 0 0
0 0 0 0 0 0 0 0 0 0 0 0 0 0 0 0 0 0 0 0 0 0 0 0 0 0 0 0 0 0 0 0 0 0 0 0 0 0 0 0 0 0 0
0 0 0 0 0 0 0 0 0 0 0 0 0 0 0 0 0 0 0 0 0 0 0 0 0 0 0 0 0 0 0 0 0 0 0 0 0 0 0 0 0 0 0
0 0 0 0 0 0 0 0 0 0 0 0 0 0 0 0 0 0 0 0 0 0 0 0 0 0 0 0 0 0 0 0 0 0 0 0 0 0 0 0 0 0 0
0 0 0 0 0 0 0 0 0 0 0 0 0 0 0 0 0 0 0 0 0 0 0 0 0 0 0 0 0 0 0 0 0 0 0 0 0 0 0 0 0 0 0
Wind_Speed
4 4 5 5 6 7 7 8 9 10 11 11 12 13 14 14 14 14 14 15 16 16 16 16 17 17 14 13 13 13 14 14 18 19 15 14 16 15 14 14 14 15 14
4 5 6 6 7 8 9 10 10 11 12 12 13 14 14 15 15 16 16 16 17 17 17 18 18 15 18 15 13 15 14 15 16 21 18 14 16 15 15 16 14 13 14
5 6 7 8 9 10 11 11 12 12 13 14 14 15 15 15 16 16 17 17 17 18 17 17 18 18 18 15 16 15 13 13 14 16 18 14 12 11 13 14 16 15 15
6 7 8 9 10 11 12 12 13 13 14 15 15 15 15 15 15 16 15 16 17 17 17 17 18 18 18 18 15 16 14 14 14 15 16 14 12 11 10 11 12 12 13
7 8 9 10 11 11 12 13 14 14 15 15 16 16 16 13 11 12 12 15 16 17 18 18 18 21 23 20 15 13 13 12 13 13 14 13 12 9 10 10 12 11 12
8 9 10 10 11 12 13 14 14 15 15 15 16 17 17 13 18 24 21 18 16 16 16 16 17 19 22 26 28 27 22 15 14 13 13 14 14 12 11 10 11 11 11
9 10 10 11 12 13 14 15 15 16 16 16 16 17 18 18 22 24 25 20 18 17 16 16 14 14 19 14 19 25 24 27 26 17 16 16 15 13 12 13 13 12 13
10 11 11 11 13 14 15 15 16 15 15 15 16 17 18 18 23 24 25 20 17 16 16 16 17 16 15 15 13 13 15 16 18 15 12 13 13 12 10 11 11 12 12
11 12 12 12 13 14 15 16 16 15 16 16 16 17 18 19 22 23 24 15 14 16 16 16 17 16 21 24 17 14 15 13 18 23 24 22 23 24 17 10 10 9 10
12 13 13 14 14 15 16 17 15 15 16 16 16 16 18 18 21 23 24 12 14 14 13 14 19 21 23 24 17 14 15 13 11 12 14 17 16 16 20 11 8 10 8
12 13 14 14 15 16 16 15 15 15 16 16 17 16 16 18 20 22 23 13 13 13 12 11 11 20 23 25 22 15 17 16 11 11 10 9 9 8 9 8 7 8 9
13 14 15 15 14 13 15 15 15 15 16 16 15 15 13 14 16 19 23 23 21 15 13 12 13 22 25 26 20 19 22 19 9 8 8 8 7 8 7 8 8 9 8
14 15 15 15 14 14 15 15 14 13 12 12 13 13 13 12 14 21 23 24 25 17 13 20 23 26 24 18 18 20 17 9 7 8 8 8 7 6 6 5 6 7 8
15 15 14 14 14 14 12 11 12 12 12 12 13 14 14 13 12 12 12 14 17 15 13 16 22 22 17 16 15 12 8 7 7 7 7 6 5 5 6 6 6 6 6
15 14 14 13 14 13 12 11 13 13 14 15 14 13 14 15 16 24 20 15 13 14 15 11 9 9 8 8 8 7 6 6 7 6 6 6 6 6 6 5 5 6 6
13 13 12 11 11 12 13 13 14 17 22 24 24 23 18 21 27 28 28 27 27 24 17 10 10 9 9 8 8 7 6 6 6 6 6 6 6 6 5 5 5 6 7
14 14 11 11 12 12 12 13 14 14 18 21 22 24 23 26 27 26 26 25 23 20 11 9 9 9 8 8 8 7 7 6 5 5 6 6 5 5 5 5 6 6 7
14 13 13 11 11 12 12 12 13 14 15 13 15 21 23 24 24 25 24 19 12 10 8 9 9 8 8 8 7 7 6 5 5 5 5 5 5 5 6 6 6 7 7
13 11 10 11 11 12 12 12 12 14 14 14 13 14 19 20 22 21 18 10 9 9 9 8 8 8 8 8 7 6 6 5 5 5 5 5 5 5 6 6 6 8 8
11 14 14 12 11 11 11 12 12 13 13 13 13 13 13 14 12 12 10 9 9 9 9 9 9 8 8 7 7 6 6 5 5 5 5 5 5 5 6 7 6 7 7
10 11 15 12 11 11 11 12 12 12 12 13 13 14 20 14 12 12 11 10 9 9 9 9 9 8 8 7 6 6 7 6 5 5 5 5 5 5 5 6 7 7 7
10 10 10 11 11 11 12 12 12 12 13 14 13 14 19 13 11 10 10 10 9 9 9 8 8 7 7 6 6 6 6 6 5 5 5 5 5 6 6 6 7 7 7
11 11 11 11 11 14 13 11 12 12 12 13 13 12 12 11 11 11 11 10 10 9 8 8 8 7 6 6 6 6 6 6 5 5 6 6 6 6 6 7 8 9 9
11 12 12 12 11 11 11 12 12 12 13 13 12 12 12 11 11 12 11 10 9 9 8 7 7 9 10 8 6 5 6 6 6 5 7 7 7 6 7 7 8 10 10
11 11 11 11 11 11 12 12 12 12 12 12 12 12 12 12 11 11 10 10 11 10 10 9 7 7 9 9 8 7 9 10 10 7 6 6 8 8 8 9 9 10 10
11 11 11 11 11 11 11 12 12 13 12 12 11 11 12 12 11 11 10 9 9 9 9 8 8 9 10 8 9 10 12 12 12 12 8 7 8 8 9 9 11 11 12
Wind_Direction
340 328 318 319 316 309 305 305 305 303 302 299 297 295 293 291 289 284 279 278 276 274 270 266 264 263 263 260 256 253 250 249 261 271 269 267 262 255 252 252 255 256 255
327 316 314 313 310 307 306 307 305 303 301 299 297 293 292 290 289 287 286 283 280 277 275 273 270 268 264 262 259 256 254 250 254 267 271 268 263 258 253 252 253 254 255
320 312 310 310 310 308 309 308 305 302 300 298 296 293 292 290 289 287 286 285 283 281 279 277 275 273 269 264 261 259 257 256 253 261 269 270 266 259 256 252 252 253 255
313 308 307 310 310 309 307 305 302 301 299 298 296 293 291 287 284 283 283 283 282 280 278 275 273 270 268 267 265 263 261 260 258 259 265 268 265 258 251 251 252 248 251
307 305 307 309 307 304 303 302 301 299 297 295 294 292 290 286 278 276 274 274 273 274 273 271 269 267 265 265 262 259 255 255 256 257 261 263 260 252 244 242 248 253 252
303 304 307 305 304 303 302 302 301 299 298 296 294 293 291 286 287 289 288 285 281 278 277 275 273 271 270 269 269 267 261 256 254 254 258 258 258 253 247 240 241 244 250
302 302 303 303 302 302 302 301 300 300 299 297 295 293 291 291 292 292 291 290 287 285 284 283 280 276 276 269 270 273 274 272 266 260 259 259 261 256 251 244 238 236 241
300 301 302 303 301 301 302 301 301 301 299 298 296 296 295 293 295 296 297 294 288 285 283 282 281 279 275 273 266 263 263 265 266 267 260 260 260 259 249 244 245 245 247
300 303 305 303 301 301 301 301 302 301 299 298 298 297 296 296 297 299 298 294 287 286 284 281 280 280 279 281 277 270 269 266 265 263 260 260 259 256 248 240 234 233 239
304 304 304 302 300 299 300 301 301 299 298 299 296 296 295 295 297 299 299 293 291 289 286 282 281 280 281 282 277 272 271 270 265 263 263 264 264 264 262 247 230 232 234
304 301 299 298 298 299 299 298 299 299 298 297 297 296 295 295 297 297 298 295 291 291 289 286 282 284 285 285 283 276 272 273 267 263 259 253 247 243 245 240 227 228 231
301 299 298 299 299 297 297 298 299 299 299 299 299 300 298 298 297 298 299 298 299 296 293 290 287 288 288 288 286 280 282 283 275 269 264 256 247 241 234 229 226 225 226
301 299 299 300 298 297 297 298 300 299 297 299 299 299 300 300 300 301 302 302 301 297 289 289 292 293 294 291 285 285 286 280 271 267 266 262 254 245 233 227 223 226 227
298 299 300 299 299 299 296 294 294 296 296 296 297 298 300 301 301 302 301 303 301 297 293 291 293 292 286 283 284 284 277 270 267 265 265 265 260 247 234 227 225 217 224
298 298 298 297 298 298 296 294 293 288 288 293 294 296 299 300 300 304 305 303 300 296 300 293 289 289 285 283 280 276 272 269 268 263 260 260 255 248 238 223 221 219 225
297 298 298 299 298 297 298 297 286 283 290 291 291 293 294 295 301 304 306 305 306 304 304 297 296 295 293 291 289 284 275 267 263 261 260 257 253 246 239 223 219 224 229
292 295 296 296 297 298 298 299 301 299 294 294 294 297 298 302 305 307 308 308 306 307 302 296 296 296 294 291 288 284 279 274 269 261 258 256 251 247 242 233 225 228 232
291 291 290 292 294 295 295 296 297 301 305 303 301 301 303 306 308 309 310 311 305 304 297 296 295 294 293 291 288 285 280 274 264 259 256 253 249 246 245 240 234 233 237
291 289 291 292 292 292 292 294 295 297 298 301 303 304 307 310 309 306 309 304 302 301 299 295 293 292 291 290 288 284 279 273 267 264 259 254 250 247 245 244 243 241 240
288 287 290 292 292 292 294 294 295 296 298 300 302 306 310 309 307 308 309 304 299 298 298 296 295 292 291 288 287 284 278 271 264 257 258 255 250 247 246 246 246 245 242
290 290 291 290 289 291 293 294 295 296 298 299 299 301 306 306 303 303 304 303 300 299 298 296 294 292 289 286 284 281 276 272 267 262 258 255 252 249 250 249 247 247 251
289 288 289 289 290 291 293 294 295 296 297 298 299 302 306 303 298 298 300 301 301 297 295 292 290 288 285 283 282 279 276 273 269 264 261 258 255 254 252 250 250 249 249
287 287 288 289 291 294 295 293 294 294 296 298 299 301 302 301 300 299 300 302 301 298 294 289 288 287 285 280 276 273 273 275 275 272 267 262 257 255 253 253 253 254 254
286 287 290 293 293 292 293 294 295 294 295 297 298 299 300 300 299 300 300 300 299 297 294 290 286 287 288 285 279 273 271 275 276 267 260 261 261 260 258 257 259 258 259
288 289 291 293 293 293 293 294 294 294 296 297 298 299 299 299 299 300 300 299 299 296 295 293 288 288 288 286 283 280 279 278 274 271 261 259 261 261 263 264 264 265 264
291 291 291 292 291 291 292 293 293 295 296 297 298 298 298 298 299 300 300 299 299 298 295 291 289 291 291 288 284 283 283 281 277 273 270 265 264 264 266 267 269 268 268